Wind_Speed
3 5 7 12 12 15 17 20 26 26 24 24 26 27 26 25 26 23 21 21 18 20 17 20 20 26 29 30 33 35 35 33 33 30 29 28 27 27 29 31 33 30 28 30
10 9 10 10 13 11 16 21 24 24 23 21 23 25 24 24 27 26 26 25 21 21 23 19 20 26 31 32 35 37 35 34 35 32 29 27 24 30 33 33 36 38 30 30
5 8 9 12 15 11 16 21 20 22 24 22 23 27 28 28 29 28 26 25 24 25 23 23 20 21 28 33 34 38 37 37 35 31 30 27 23 28 33 30 35 37 32 32
3 10 11 13 14 14 19 22 21 23 20 19 20 18 21 19 18 20 23 25 26 26 25 25 23 21 27 31 32 36 36 38 35 36 35 33 29 28 30 36 33 37 36 33
12 13 11 13 12 19 24 21 22 27 26 21 24 13 17 19 21 20 21 21 20 20 24 25 24 25 28 30 32 30 37 37 39 36 36 34 30 28 29 31 34 30 32 32
19 3 3 9 17 17 18 25 28 29 22 17 25 19 17 10 27 27 29 31 33 33 17 21 23 30 31 30 30 27 31 35 38 38 37 37 33 30 29 30 33 36 35 35
16 3 4 5 25 15 20 18 12 12 10 9 8 6 17 24 25 26 26 28 29 29 31 31 26 19 21 28 34 32 34 35 39 41 40 36 36 34 33 34 31 36 35 36
12 13 15 22 18 12 23 10 6 9 13 17 14 5 8 26 25 26 27 27 28 29 28 29 29 28 28 22 35 36 35 35 38 42 42 37 37 35 33 37 34 34 35 39
14 14 31 28 7 11 11 11 15 16 22 17 7 14 8 31 31 30 31 30 32 31 29 31 31 31 36 38 33 39 39 38 40 39 40 41 39 38 36 36 37 34 34 34
15 28 24 21 14 7 13 12 9 6 6 7 7 9 13 29 29 30 31 31 31 29 28 27 27 33 39 41 32 39 38 39 37 39 39 39 37 37 38 35 38 36 35 34
24 16 20 21 14 12 11 8 8 10 8 5 6 8 15 22 24 27 25 27 26 24 22 22 22 33 35 36 35 32 34 35 36 39 39 37 37 36 34 34 37 34 35 36
17 13 18 23 21 13 16 7 10 7 11 11 7 6 20 22 21 24 25 25 24 24 22 20 19 27 29 31 32 23 32 35 38 38 38 36 37 36 34 34 33 35 34 36
14 8 13 14 10 15 16 14 11 12 9 8 6 7 20 23 23 25 24 23 25 27 23 20 19 19 22 28 30 29 19 34 35 34 33 31 31 35 38 36 35 34 33 33
17 14 16 11 16 17 12 13 19 17 8 8 14 19 25 26 22 26 25 24 22 24 22 19 19 21 26 30 28 29 26 27 30 32 29 29 31 33 35 33 33 32 35 33
14 16 21 20 20 5 10 18 18 20 17 12 17 16 21 22 21 22 18 24 23 24 25 23 23 23 25 33 36 35 32 24 15 26 27 29 31 28 31 32 32 31 31 32
17 16 17 20 16 8 17 18 17 19 17 12 15 16 21 21 16 22 23 25 25 24 24 27 25 25 26 36 36 37 36 33 24 18 22 30 28 28 31 31 34 33 32 33
12 12 14 13 6 8 20 18 11 18 16 13 15 16 19 23 19 21 21 24 24 24 25 24 25 26 31 39 39 37 37 32 32 30 24 3 25 30 32 32 33 34 33 32
13 13 8 9 7 13 9 17 3 17 18 16 15 17 18 19 14 17 18 21 24 25 25 23 23 31 41 39 39 37 41 40 37 35 32 28 11 21 27 29 30 31 31 31
10 10 6 6 8 3 20 21 16 12 10 20 19 17 17 19 17 18 20 18 19 22 26 28 33 36 34 37 42 37 31 41 39 40 36 32 28 16 12 23 27 28 29 28
11 9 8 8 9 7 14 20 21 15 10 21 19 18 19 20 15 13 20 20 20 26 29 33 31 35 38 35 36 40 37 32 36 39 37 37 31 29 23 10 14 20 23 23
11 10 7 8 5 7 15 16 18 14 12 19 18 18 17 15 11 15 17 20 26 26 29 29 30 28 24 28 28 30 36 38 31 31 36 39 39 32 29 25 16 12 19 23
8 7 6 6 7 4 14 14 12 9 14 16 17 18 18 15 17 18 20 18 23 26 29 29 25 29 35 36 31 30 29 29 40 31 29 34 36 36 35 32 28 25 17 17
3 4 5 3 4 4 6 9 11 12 14 15 16 18 19 20 20 19 19 20 22 24 24 25 28 27 27 27 32 22 21 30 23 30 32 27 30 31 32 37 31 28 24 19
4 1 5 7 2 9 10 11 15 18 18 19 19 19 20 21 22 21 16 17 21 25 25 25 25 24 25 27 26 31 31 28 23 23 23 26 22 25 30 32 31 32 27 20
8 6 7 10 6 12 11 16 17 18 19 21 21 20 18 20 22 21 20 20 22 21 22 26 24 21 22 24 23 23 26 27 29 26 24 23 23 25 18 28 25 27 29 30
10 5 6 9 12 10 15 17 19 20 21 21 21 21 25 22 19 26 21 27 27 24 25 22 25 23 21 20 20 19 23 26 25 24 23 17 22 7 17 15 20 19 18 20
Wind_Direction
327 268 8 329 314 303 300 289 285 285 287 280 273 276 274 275 272 274 266 256 253 264 264 254 223 214 205 200 192 192 188 193 188 188 181 175 179 176 178 172 175 173 186 177
222 50 3 314 304 302 297 304 296 303 293 284 276 273 274 262 259 259 261 266 256 257 260 255 235 210 208 202 194 194 187 192 192 184 192 191 185 182 180 178 178 178 187 181
28 19 326 318 319 334 309 303 301 309 316 301 287 275 266 262 259 263 264 260 259 259 261 256 244 217 212 203 197 197 187 190 191 185 183 190 193 184 175 182 180 182 189 185
66 346 330 321 328 354 310 317 299 292 286 277 282 288 286 287 274 243 235 237 246 252 254 255 258 235 209 207 204 200 189 187 191 189 185 194 197 190 187 181 182 182 187 185
357 324 329 333 352 321 302 312 293 279 273 270 266 252 262 250 252 258 258 259 260 250 246 251 245 247 230 200 203 199 188 186 190 193 195 195 200 197 191 184 186 183 186 188
331 242 311 341 339 323 309 304 295 263 248 244 251 247 252 359 15 3 359 0 357 355 281 249 254 255 237 189 190 192 193 187 189 197 203 199 197 192 188 192 181 185 187 189
319 341 357 359 333 326 337 330 320 294 202 227 355 270 35 20 17 9 359 351 348 354 345 348 333 259 247 192 187 182 196 195 189 195 206 204 198 195 192 189 189 184 186 189
341 317 7 334 313 301 301 323 317 308 316 307 288 339 38 19 9 12 2 355 351 349 344 334 331 327 317 224 188 190 192 198 192 196 202 204 201 195 198 190 191 190 189 192
313 302 319 300 300 309 325 304 312 268 269 271 323 42 53 10 7 4 6 2 356 350 341 334 328 323 316 309 187 186 192 198 202 199 198 202 203 197 199 190 190 193 196 194
312 301 304 293 299 282 283 302 324 313 285 307 79 57 2 1 2 360 3 3 357 345 341 336 329 323 315 306 289 180 191 195 198 206 198 199 204 203 201 192 191 193 195 196
315 298 314 309 302 314 319 328 323 294 253 291 323 65 12 6 7 1 352 358 356 344 335 331 323 318 319 315 310 184 187 196 196 200 203 196 198 207 206 200 194 193 194 196
323 308 295 301 294 267 347 344 341 317 303 313 290 82 21 13 4 3 355 352 359 342 334 329 325 326 329 336 324 280 187 193 198 205 202 197 192 199 207 206 197 198 196 195
328 307 309 311 337 352 325 21 6 328 277 16 20 34 8 8 1 2 354 352 357 345 336 334 333 346 342 347 340 327 256 196 201 204 198 189 190 194 203 203 198 197 199 198
337 317 329 328 317 319 358 37 40 32 21 335 20 15 5 360 352 359 355 349 355 346 342 332 343 359 -0 359 356 354 346 198 197 206 186 186 190 199 201 202 198 198 196 200
347 323 319 318 305 1 49 44 46 40 22 20 20 18 3 355 343 360 350 350 356 349 344 338 2 2 358 5 5 6 3 3 230 203 185 185 191 196 199 198 196 199 196 201
344 322 315 298 309 131 50 32 58 52 34 24 20 22 355 353 354 3 358 355 354 346 347 351 358 0 7 8 5 7 9 6 8 223 195 189 188 198 195 192 190 195 194 195
336 327 313 298 21 66 35 14 35 67 51 23 23 5 358 356 14 5 354 354 351 344 347 357 356 360 2 4 7 12 11 14 24 26 24 221 203 199 192 191 189 195 196 194
337 339 327 311 331 56 27 27 137 55 40 38 26 15 10 354 5 4 3 357 353 348 351 359 353 360 2 358 360 17 18 20 23 29 24 16 7 189 182 187 188 193 192 191
351 334 344 344 71 114 24 12 347 320 32 27 20 9 11 350 352 4 357 6 356 355 350 350 3 6 358 4 7 7 12 24 19 25 22 13 14 39 184 182 186 190 193 196
356 346 15 26 54 41 9 1 341 321 58 9 10 1 1 348 356 353 347 353 350 356 357 357 3 3 7 2 4 9 12 17 27 19 21 19 18 26 35 74 176 190 192 193
12 347 5 2 5 65 16 10 352 26 344 346 354 353 353 340 335 330 337 346 348 346 351 3 4 0 360 4 12 17 11 16 15 23 25 23 23 24 27 41 70 124 161 168
6 326 3 333 353 352 357 6 23 352 337 341 344 345 335 329 329 335 333 337 343 343 348 354 356 5 356 3 12 16 15 15 12 15 25 29 24 23 28 35 40 55 76 105
3 355 314 339 354 331 317 348 360 350 335 337 339 335 332 326 328 329 327 328 334 334 336 347 350 354 1 1 356 21 13 11 22 11 21 27 33 27 27 35 32 39 45 46
196 237 285 308 276 346 325 341 352 343 344 340 339 340 336 330 327 324 324 323 325 326 330 343 336 343 349 352 360 2 8 7 11 27 12 25 27 34 39 43 34 40 34 38
291 335 298 283 281 349 334 340 337 329 333 335 334 333 329 328 326 326 325 323 320 318 326 325 315 329 337 344 353 357 356 359 8 12 29 7 37 6 37 50 41 47 47 41
260 267 285 321 340 330 323 323 322 329 330 329 328 328 330 329 324 326 321 322 320 328 316 314 316 318 325 326 336 346 356 358 359 359 360 13 6 40 23 29 70 49 57 54
Height
755 747 767 773 770 764 760 755 745 729 719 719 713 707 699 693 689 681 675 671 671 668 661 659 662 670 677 686 698 707 715 722 727 733 737 743 748 755 761 759 770 777 783 786
749 761 775 774 766 762 759 757 746 732 722 717 710 703 695 690 684 682 679 672 668 667 663 657 657 663 671 680 690 699 709 718 722 726 732 738 743 751 757 764 767 776 779 782
769 778 778 773 764 762 766 762 748 744 732 726 722 713 702 688 681 676 672 667 666 665 661 657 654 656 664 673 683 693 702 713 719 723 730 737 740 746 754 761 764 766 776 778
770 777 778 770 765 773 771 759 753 750 742 730 709 705 683 670 662 656 655 659 660 661 658 655 652 652 656 667 678 689 697 707 715 719 723 729 731 735 742 752 759 764 769 774
777 779 781 773 781 782 769 759 750 743 730 722 711 710 686 671 670 663 656 652 649 648 651 649 648 648 648 659 673 684 693 702 709 715 718 722 725 731 738 744 753 760 765 772
778 775 780 781 783 777 762 753 731 709 705 711 692 691 678 683 706 693 681 672 669 664 643 644 645 644 646 649 665 680 689 695 702 711 714 716 718 725 732 738 744 753 760 761
778 767 778 784 784 777 771 751 729 692 682 685 683 683 739 719 720 720 714 706 698 690 680 665 649 641 638 641 656 669 682 689 695 703 709 710 713 720 725 731 737 744 751 759
803 784 782 784 792 792 775 763 764 758 706 703 698 699 758 740 737 733 729 724 717 706 702 694 681 665 648 639 651 661 673 683 686 693 699 704 710 714 721 725 731 738 743 749
821 798 798 788 780 778 772 765 762 767 735 708 688 724 708 741 745 738 737 733 727 724 719 708 694 682 666 648 636 649 662 673 680 685 692 699 705 708 714 719 726 732 739 745
830 818 797 781 775 770 780 764 768 762 745 720 734 766 781 767 764 757 752 745 746 740 729 719 706 694 677 658 639 636 651 662 673 680 684 690 699 704 710 714 718 725 733 740
828 812 799 789 779 785 777 775 773 769 763 743 727 780 804 795 789 781 774 763 762 758 747 735 721 704 686 662 641 634 643 657 665 671 677 683 693 701 708 709 714 720 727 734
829 830 819 804 778 774 792 782 784 785 765 760 754 797 799 800 797 794 786 776 767 763 751 740 726 709 688 669 649 630 635 646 653 663 669 674 684 694 700 705 709 716 721 727
842 832 826 794 779 797 790 791 790 784 780 783 765 792 802 802 803 798 791 782 771 762 752 741 729 708 692 676 661 644 634 637 644 654 661 669 677 686 691 697 701 708 715 721
844 835 832 835 816 799 807 813 797 804 809 803 807 811 813 809 809 805 796 788 778 768 758 747 727 708 694 686 674 660 645 632 637 649 655 663 671 678 686 691 696 703 708 715
846 850 838 823 811 813 820 818 813 823 828 819 828 823 827 823 816 815 804 793 780 771 763 750 721 713 702 690 677 665 655 645 640 643 648 658 665 674 682 686 691 697 702 709
847 848 836 828 811 823 816 819 828 829 836 834 827 831 834 822 818 814 807 796 786 777 766 750 727 720 709 698 688 678 665 656 647 643 645 655 657 667 675 679 684 691 693 701
848 844 832 828 828 828 830 835 838 829 840 840 836 843 834 823 820 820 810 800 790 783 761 752 744 726 722 712 704 689 681 673 659 654 649 646 652 664 670 674 679 682 687 694
846 838 828 818 817 837 846 832 839 837 834 838 839 837 836 829 826 822 814 806 794 781 768 755 754 744 727 722 715 703 691 679 674 666 662 659 656 660 665 668 672 678 683 689
843 834 832 840 835 843 838 836 837 833 848 834 835 835 834 829 821 818 812 808 804 792 785 773 756 745 747 732 723 715 707 691 688 681 676 673 667 658 661 663 668 674 679 685
843 834 835 842 842 857 850 840 830 821 842 832 833 835 833 828 819 817 810 805 800 791 785 781 768 758 749 745 737 723 715 708 696 693 689 681 675 670 665 664 665 668 674 680
852 844 844 841 844 857 846 843 835 843 856 839 837 833 834 832 829 822 815 808 805 799 790 779 775 772 772 758 744 732 726 716 715 713 698 693 686 682 677 671 669 670 673 677
860 860 851 845 853 858 849 846 856 854 848 843 838 835 832 829 824 819 813 808 802 795 787 783 778 768 757 751 751 746 736 734 719 720 715 703 700 697 687 682 679 678 679 680
862 867 867 865 855 851 849 849 848 848 845 841 838 834 829 823 818 816 811 806 800 797 793 788 777 772 772 770 764 758 754 735 737 725 720 717 711 711 704 693 692 688 689 691
853 859 859 854 849 848 848 848 848 847 845 843 840 837 832 824 816 811 808 803 799 794 789 784 780 776 771 766 762 752 745 744 743 740 732 727 719 722 715 708 704 705 703 701
857 859 855 850 846 849 847 848 847 845 843 840 839 836 832 824 817 810 804 801 797 794 791 789 785 779 774 769 763 760 758 753 742 735 728 733 728 729 725 719 724 715 716 714
851 853 855 851 851 854 851 848 846 841 837 835 832 829 827 823 817 810 804 799 796 793 792 786 781 777 775 773 768 765 756 752 750 741 739 737 726 745 733 728 726 729 725 721